Find Starlink 2359

NORAD ID: 47899 Int'l Des: 2021-021 Owner: SPXS Country: US Constellation: starlink decayed
LEOCIRCULAR
Vis

Historical Track — Oct 18, 2023

Loading 3D Globe...

About Starlink 2359

Description loading...

Altitude History

Loading altitude history...

Two-Line Element Set

1 47899U 21021AR 23291.71150547 .33612924 12526-4 97067-3 0 9992
2 47899 53.0080 122.0963 0006970 283.8779 126.1304 16.44876487145613
Epoch: Oct 18, 2023 • Age: 21890 hours

Current Status

Position data unavailable
Launch Date Mar 14, 2021
Age 5 years
Decay Date Oct 18, 2023
Type internet

Technical Details

Classification Payload
Mass 260.00 kg
Dry Mass 248.00 kg
Total Mass 260.00 kg
Length 0.20 m
Diameter 2.80 m
Span 9.00 m
Shape Box + pan
Manufacturer SPXS
Bus Type Starlink
Phase Status Unknown Transfer Status
Owner/State SPXS/US

Most Searched